OAL034 PHKO-KSEA

Flight info

Callsign OAL034
Flight time N/A
Altitude 37000
Route AMERY4 ROWIN DCT JESSI V1 OGG DCT APACK R463 AUNTI A332 HEMLO C1419 ONP J136 BTG HAWKZ7
Aircraft B738/M-VGDW/C

Departure

Time 2026-04-30 07:11
Airport Ellison Onizuka Kona International Airport at Keāhole (PHKO)

Arrival

Time N/A
Airport Seattle–Tacoma International Airport (KSEA)
Time Latitude Longitude Altitude Speed Heading
2026-04-30 07:03 19.72608 -156.04257 55 ft 0 kts 185°
2026-04-30 07:09 19.72592 -156.04258 55 ft 9 kts 186°
2026-04-30 07:10 19.72485 -156.04301 55 ft 24 kts 209°
2026-04-30 07:10 19.72359 -156.04443 55 ft 28 kts 253°
2026-04-30 07:10 19.72362 -156.04638 55 ft 25 kts 298°
2026-04-30 07:10 19.72620 -156.04667 55 ft 72 kts
2026-04-30 07:11 19.73364 -156.04609 55 ft 140 kts
2026-04-30 07:11 19.74519 -156.04497 249 ft 179 kts
2026-04-30 07:11 19.75790 -156.04381 1034 ft 192 kts
2026-04-30 07:11 19.77123 -156.04584 1820 ft 201 kts 341°
2026-04-30 07:12 19.78322 -156.05359 2728 ft 205 kts 317°
2026-04-30 07:12 19.79132 -156.06579 3749 ft 203 kts 295°
2026-04-30 07:12 19.79593 -156.07991 4727 ft 201 kts 284°
2026-04-30 07:12 19.79763 -156.09498 5482 ft 213 kts 275°
2026-04-30 07:13 19.79827 -156.11087 6086 ft 219 kts 274°
2026-04-30 07:13 19.79900 -156.12754 6551 ft 234 kts 274°
2026-04-30 07:13 19.80000 -156.14523 7057 ft 245 kts 274°
2026-04-30 07:13 19.80207 -156.16341 7690 ft 252 kts 284°
2026-04-30 07:14 19.80857 -156.18082 8407 ft 256 kts 295°
2026-04-30 07:14 19.81740 -156.19744 9144 ft 260 kts 299°
2026-04-30 07:14 19.82740 -156.21360 9868 ft 264 kts 302°
2026-04-30 07:14 19.83802 -156.22970 10496 ft 271 kts 302°
2026-04-30 07:15 19.84909 -156.24645 10919 ft 285 kts 302°
2026-04-30 07:15 19.86085 -156.26432 11198 ft 304 kts 302°
2026-04-30 07:15 19.87329 -156.28332 11457 ft 323 kts 302°
2026-04-30 07:15 19.88646 -156.30348 11702 ft 340 kts 303°
2026-04-30 07:16 19.90020 -156.32455 12074 ft 353 kts 303°
2026-04-30 07:16 19.91425 -156.34615 12677 ft 357 kts 303°
2026-04-30 07:16 19.92846 -156.36799 13322 ft 361 kts 303°
2026-04-30 07:16 19.94537 -156.38782 13939 ft 368 kts 319°
2026-04-30 07:17 19.96790 -156.40133 14542 ft 378 kts 337°
2026-04-30 07:17 19.99366 -156.40790 15138 ft 386 kts 348°
2026-04-30 07:17 20.04768 -156.41349 16291 ft 394 kts 353°
2026-04-30 07:18 20.07531 -156.41474 16848 ft 398 kts 354°
2026-04-30 07:18 20.10306 -156.41599 17389 ft 401 kts 354°
2026-04-30 07:18 20.13106 -156.41728 17917 ft 404 kts 354°
2026-04-30 07:18 20.15925 -156.41843 18433 ft 408 kts 355°
2026-04-30 07:19 20.18776 -156.41886 18938 ft 411 kts 356°
2026-04-30 07:19 20.21650 -156.41925 19433 ft 414 kts 356°
2026-04-30 07:19 20.24542 -156.41969 19915 ft 417 kts 355°
2026-04-30 07:19 20.27453 -156.42007 20385 ft 420 kts 356°
2026-04-30 07:20 20.30388 -156.41995 20841 ft 424 kts 357°
2026-04-30 07:20 20.33345 -156.41977 21284 ft 426 kts 357°
2026-04-30 07:20 20.36324 -156.41960 21716 ft 429 kts 357°
2026-04-30 07:20 20.39316 -156.41945 22134 ft 432 kts 357°
2026-04-30 07:21 20.42337 -156.41930 22544 ft 435 kts 357°
2026-04-30 07:21 20.45366 -156.41917 22942 ft 437 kts 357°
2026-04-30 07:21 20.48424 -156.41903 23332 ft 440 kts 357°
2026-04-30 07:21 20.51447 -156.41919 23706 ft 442 kts 355°
2026-04-30 07:22 20.57256 -156.43713 24411 ft 434 kts 324°
2026-04-30 07:22 20.59548 -156.45728 24750 ft 432 kts 312°
2026-04-30 07:22 20.61835 -156.47884 25081 ft 438 kts 324°
2026-04-30 07:23 20.64579 -156.49322 25401 ft 446 kts 339°
2026-04-30 07:23 20.67651 -156.49943 25711 ft 454 kts 354°
2026-04-30 07:23 20.70783 -156.49694 26006 ft 463 kts
2026-04-30 07:23 20.73908 -156.48628 26322 ft 469 kts 19°
2026-04-30 07:24 20.76914 -156.47242 26680 ft 470 kts 19°
2026-04-30 07:24 20.79903 -156.45982 27097 ft 468 kts 18°
2026-04-30 07:24 20.83004 -156.44808 27511 ft 466 kts 15°
2026-04-30 07:24 20.86076 -156.43724 27904 ft 465 kts 15°
2026-04-30 07:25 20.89141 -156.42822 28288 ft 462 kts
2026-04-30 07:25 20.92299 -156.42212 28671 ft 459 kts
2026-04-30 07:25 20.95469 -156.41912 29049 ft 456 kts
2026-04-30 07:25 20.98630 -156.41776 29423 ft 455 kts 358°
2026-04-30 07:26 21.01800 -156.41692 29790 ft 454 kts 358°
2026-04-30 07:26 21.04953 -156.41606 30149 ft 453 kts 358°
2026-04-30 07:26 21.08103 -156.41517 30499 ft 453 kts 358°
2026-04-30 07:26 21.11246 -156.41426 30843 ft 452 kts 358°
2026-04-30 07:27 21.14391 -156.41332 31180 ft 451 kts 358°
2026-04-30 07:27 21.17532 -156.41237 31511 ft 451 kts 358°
2026-04-30 07:27 21.20661 -156.41142 31835 ft 450 kts 358°
2026-04-30 07:27 21.23793 -156.41045 32154 ft 450 kts 358°
2026-04-30 07:28 21.26921 -156.40948 32467 ft 449 kts 358°
2026-04-30 07:28 21.30034 -156.40852 32772 ft 448 kts 358°
2026-04-30 07:28 21.33155 -156.40754 33073 ft 448 kts 358°
2026-04-30 07:28 21.36270 -156.40656 33368 ft 447 kts 358°
2026-04-30 07:29 21.39376 -156.40559 33658 ft 447 kts 358°
2026-04-30 07:29 21.42480 -156.40461 33941 ft 446 kts 358°
2026-04-30 07:29 21.45584 -156.40363 34220 ft 446 kts 358°
2026-04-30 07:29 21.48680 -156.40265 34493 ft 445 kts 358°
2026-04-30 07:30 21.54864 -156.40069 35022 ft 444 kts 358°
2026-04-30 07:30 21.57952 -156.39971 35279 ft 443 kts 358°
2026-04-30 07:30 21.61029 -156.39873 35529 ft 443 kts 358°
2026-04-30 07:31 21.64104 -156.39776 35774 ft 442 kts 358°
2026-04-30 07:31 21.67179 -156.39678 36014 ft 442 kts 358°
2026-04-30 07:31 21.70253 -156.39580 36232 ft 442 kts 358°
2026-04-30 07:31 21.73331 -156.39482 36446 ft 442 kts 358°
2026-04-30 07:32 21.76409 -156.39384 36656 ft 442 kts 358°
2026-04-30 07:32 21.79477 -156.39287 36861 ft 442 kts 358°
2026-04-30 07:32 21.82555 -156.39188 36991 ft 444 kts 358°
2026-04-30 07:33 21.88752 -156.38991 36997 ft 446 kts 358°
2026-04-30 07:33 21.94929 -156.38794 36997 ft 442 kts 358°
2026-04-30 07:34 22.01018 -156.38599 36997 ft 441 kts 358°
2026-04-30 07:34 22.07159 -156.38403 36997 ft 442 kts 358°
2026-04-30 07:35 22.13305 -156.38206 36997 ft 442 kts 358°
2026-04-30 07:35 22.19455 -156.38009 36997 ft 442 kts 358°
2026-04-30 07:36 22.25598 -156.37812 36997 ft 442 kts 358°
2026-04-30 07:36 22.30752 -156.37646 36997 ft 442 kts 358°
2026-04-30 07:37 22.36860 -156.37450 36997 ft 442 kts 358°
2026-04-30 07:37 22.43004 -156.37253 36997 ft 442 kts 358°
2026-04-30 07:38 22.49149 -156.37055 36997 ft 442 kts 358°
2026-04-30 07:38 22.55297 -156.36857 36997 ft 442 kts 358°
2026-04-30 07:39 22.61441 -156.36659 36997 ft 442 kts 358°
2026-04-30 07:39 22.67585 -156.36461 36997 ft 442 kts 358°
2026-04-30 07:40 22.73734 -156.36262 36997 ft 442 kts 358°
2026-04-30 07:40 22.79875 -156.36064 36997 ft 442 kts 358°
2026-04-30 07:41 22.86020 -156.35865 36997 ft 442 kts 358°
2026-04-30 07:41 22.92166 -156.35666 36997 ft 442 kts 358°
2026-04-30 07:42 22.98318 -156.35466 36997 ft 442 kts 358°
2026-04-30 07:42 23.04458 -156.35267 36997 ft 442 kts 358°
2026-04-30 07:43 23.10607 -156.35068 36997 ft 442 kts 358°
2026-04-30 07:43 23.16755 -156.34868 36997 ft 442 kts 358°
2026-04-30 07:44 23.22892 -156.34668 36997 ft 442 kts 358°
2026-04-30 07:44 23.29047 -156.34468 36997 ft 442 kts 358°
2026-04-30 07:45 23.35191 -156.34268 36997 ft 442 kts 358°
2026-04-30 07:45 23.41334 -156.34067 36997 ft 442 kts 358°
2026-04-30 07:46 23.47482 -156.33867 36997 ft 442 kts 358°
2026-04-30 07:46 23.53630 -156.33666 36996 ft 442 kts 358°
2026-04-30 07:47 23.59776 -156.33465 36997 ft 442 kts 358°
2026-04-30 07:47 23.65913 -156.33264 36997 ft 442 kts 358°
2026-04-30 07:48 23.72068 -156.33062 36997 ft 442 kts 358°
2026-04-30 07:48 23.78166 -156.32862 36997 ft 442 kts 358°
2026-04-30 07:49 23.84312 -156.32661 36997 ft 442 kts 358°
2026-04-30 07:49 23.90451 -156.32459 36998 ft 442 kts 358°
2026-04-30 07:50 23.96607 -156.32256 36997 ft 442 kts 358°
2026-04-30 07:50 24.02661 -156.31111 36989 ft 451 kts 21°
2026-04-30 07:50 24.05347 -156.29317 36994 ft 457 kts 37°
2026-04-30 07:51 24.07602 -156.26846 37003 ft 461 kts 48°
2026-04-30 07:51 24.11434 -156.21216 36997 ft 462 kts 53°
2026-04-30 07:52 24.15120 -156.15441 36997 ft 462 kts 53°
2026-04-30 07:52 24.18808 -156.09683 36997 ft 462 kts 53°
2026-04-30 07:53 24.22498 -156.03931 36997 ft 462 kts 53°
2026-04-30 07:53 24.26207 -155.98173 36997 ft 462 kts 53°
2026-04-30 07:54 24.29915 -155.92421 36996 ft 462 kts 53°
2026-04-30 07:54 24.33616 -155.86668 36997 ft 462 kts 53°
2026-04-30 07:55 24.37319 -155.80901 36997 ft 462 kts 53°
2026-04-30 07:55 24.41013 -155.75139 36997 ft 462 kts 53°
2026-04-30 07:56 24.44707 -155.69369 36997 ft 462 kts 53°
2026-04-30 07:56 24.48398 -155.63597 36997 ft 462 kts 53°
2026-04-30 07:57 24.52086 -155.57823 36997 ft 462 kts 53°
2026-04-30 07:57 24.55781 -155.52048 36997 ft 462 kts 53°
2026-04-30 07:58 24.59443 -155.46308 36997 ft 462 kts 53°
2026-04-30 07:58 24.63125 -155.40517 36997 ft 462 kts 53°
2026-04-30 07:59 24.66803 -155.34720 36996 ft 462 kts 53°
2026-04-30 07:59 24.70480 -155.28925 36997 ft 462 kts 53°
2026-04-30 08:00 24.76901 -155.21102 36997 ft 459 kts 42°
2026-04-30 08:00 24.81463 -155.16195 36997 ft 459 kts 42°
2026-04-30 08:01 24.86021 -155.11273 36997 ft 459 kts 42°
2026-04-30 08:01 24.90573 -155.06344 36997 ft 459 kts 42°
2026-04-30 08:02 24.97392 -154.98947 36997 ft 459 kts 42°
2026-04-30 08:03 25.06505 -154.89077 36998 ft 459 kts 42°
2026-04-30 08:04 25.11020 -154.84171 36997 ft 459 kts 42°
2026-04-30 08:04 25.15565 -154.79224 36997 ft 459 kts 42°
2026-04-30 08:05 25.20109 -154.74271 36997 ft 459 kts 42°
2026-04-30 08:05 25.24649 -154.69315 36997 ft 459 kts 42°
2026-04-30 08:06 25.29189 -154.64355 36997 ft 459 kts 42°
2026-04-30 08:06 25.33726 -154.59391 36997 ft 459 kts 42°
2026-04-30 08:07 25.38259 -154.54425 36997 ft 459 kts 42°
2026-04-30 08:07 25.42798 -154.49448 36997 ft 459 kts 42°
2026-04-30 08:08 25.47329 -154.44474 36997 ft 459 kts 42°
2026-04-30 08:08 25.51860 -154.39494 36997 ft 459 kts 42°
2026-04-30 08:09 25.56391 -154.34509 36997 ft 459 kts 43°
2026-04-30 08:09 25.60919 -154.29521 36996 ft 459 kts 43°
2026-04-30 08:10 25.65445 -154.24529 36997 ft 459 kts 43°
2026-04-30 08:10 25.69969 -154.19534 36998 ft 459 kts 43°
2026-04-30 08:11 25.74491 -154.14536 36997 ft 459 kts 43°
2026-04-30 08:11 25.79009 -154.09537 36997 ft 459 kts 43°
2026-04-30 08:12 25.83500 -154.04561 36997 ft 459 kts 43°
2026-04-30 08:12 25.88018 -153.99550 36997 ft 459 kts 43°
2026-04-30 08:13 25.92534 -153.94536 36997 ft 459 kts 43°
2026-04-30 08:13 25.97051 -153.89515 36997 ft 459 kts 43°
2026-04-30 08:14 26.01561 -153.84495 36997 ft 459 kts 43°
2026-04-30 08:14 26.06075 -153.79466 36997 ft 459 kts 43°
2026-04-30 08:15 26.10582 -153.74438 36997 ft 459 kts 43°
2026-04-30 08:15 26.15092 -153.69402 36997 ft 459 kts 43°
2026-04-30 08:16 26.19598 -153.64364 36997 ft 459 kts 43°
2026-04-30 08:16 26.24100 -153.59324 36997 ft 459 kts 43°
2026-04-30 08:17 26.28603 -153.54277 36997 ft 459 kts 43°
2026-04-30 08:17 26.33107 -153.49224 36996 ft 459 kts 43°
2026-04-30 08:18 26.37605 -153.44171 36997 ft 459 kts 43°
2026-04-30 08:18 26.42101 -153.39115 36997 ft 459 kts 43°
2026-04-30 08:19 26.46599 -153.34050 36997 ft 459 kts 43°
2026-04-30 08:19 26.51094 -153.28983 36997 ft 459 kts 43°
2026-04-30 08:20 26.55586 -153.23914 36997 ft 459 kts 43°
2026-04-30 08:20 26.60047 -153.18873 36997 ft 459 kts 43°
2026-04-30 08:21 26.64533 -153.13797 36997 ft 459 kts 43°
2026-04-30 08:21 26.69020 -153.08715 36997 ft 459 kts 43°
2026-04-30 08:22 26.73508 -153.03626 36997 ft 459 kts 43°
2026-04-30 08:22 26.77992 -152.98535 36997 ft 459 kts 43°
2026-04-30 08:23 26.82473 -152.93441 36997 ft 459 kts 43°
2026-04-30 08:23 26.86956 -152.88339 36997 ft 459 kts 43°
2026-04-30 08:24 26.91432 -152.83239 36997 ft 459 kts 43°
2026-04-30 08:24 26.95910 -152.78130 36997 ft 459 kts 43°
2026-04-30 08:25 27.00382 -152.73023 36997 ft 459 kts 43°
2026-04-30 08:25 27.04100 -152.68772 36997 ft 459 kts 43°
2026-04-30 08:26 27.08571 -152.63653 36997 ft 459 kts 43°
2026-04-30 08:26 27.13044 -152.58527 36997 ft 459 kts 43°
2026-04-30 08:27 27.17505 -152.53408 36997 ft 459 kts 43°
2026-04-30 08:27 27.21976 -152.48271 36997 ft 459 kts 43°
2026-04-30 08:28 27.26436 -152.43141 36997 ft 459 kts 43°
2026-04-30 08:28 27.30901 -152.37999 36997 ft 459 kts 43°
2026-04-30 08:29 27.35363 -152.32854 36997 ft 459 kts 43°
2026-04-30 08:29 27.39828 -152.27699 36997 ft 459 kts 43°
2026-04-30 08:30 27.44276 -152.22556 36997 ft 459 kts 43°
2026-04-30 08:30 27.48739 -152.17391 36996 ft 459 kts 43°
2026-04-30 08:31 27.53188 -152.12236 36998 ft 459 kts 43°
2026-04-30 08:31 27.57609 -152.07106 36997 ft 459 kts 44°
2026-04-30 08:32 27.62064 -152.01931 36998 ft 459 kts 44°
2026-04-30 08:32 27.66511 -151.96759 36997 ft 459 kts 44°
2026-04-30 08:33 27.70958 -151.91579 36997 ft 459 kts 44°
2026-04-30 08:33 27.75403 -151.86397 36997 ft 459 kts 44°
2026-04-30 08:34 27.79841 -151.81215 36997 ft 459 kts 44°
2026-04-30 08:34 27.84286 -151.76019 36997 ft 459 kts 44°
2026-04-30 08:35 27.88722 -151.70827 36997 ft 459 kts 44°
2026-04-30 08:35 27.93162 -151.65624 36997 ft 459 kts 44°
2026-04-30 08:36 27.97595 -151.60422 36997 ft 459 kts 44°
2026-04-30 08:36 28.02028 -151.55214 36997 ft 459 kts 44°
2026-04-30 08:37 28.06457 -151.50004 36997 ft 459 kts 44°
2026-04-30 08:37 28.10888 -151.44784 36998 ft 459 kts 44°
2026-04-30 08:38 28.15321 -151.39557 36997 ft 459 kts 44°
2026-04-30 08:38 28.19742 -151.34336 36997 ft 459 kts 44°
2026-04-30 08:39 28.24165 -151.29106 36997 ft 459 kts 44°
2026-04-30 08:39 28.28587 -151.23872 36997 ft 459 kts 44°
2026-04-30 08:40 28.32977 -151.18668 36997 ft 459 kts 44°
2026-04-30 08:40 28.37397 -151.13422 36997 ft 459 kts 44°
2026-04-30 08:41 28.41815 -151.08171 36997 ft 459 kts 44°
2026-04-30 08:41 28.46229 -151.02918 36997 ft 459 kts 44°
2026-04-30 08:42 28.50640 -150.97663 36997 ft 459 kts 44°
2026-04-30 08:42 28.55049 -150.92402 36997 ft 460 kts 44°
2026-04-30 08:43 28.59458 -150.87135 36997 ft 460 kts 44°
2026-04-30 08:43 28.63862 -150.81868 36997 ft 460 kts 44°
2026-04-30 08:44 28.68270 -150.76587 36997 ft 460 kts 44°
2026-04-30 08:44 28.72669 -150.71311 36997 ft 460 kts 44°
2026-04-30 08:45 28.77070 -150.66027 36997 ft 460 kts 44°
2026-04-30 08:45 28.81469 -150.60738 36997 ft 460 kts 44°
2026-04-30 08:46 28.85867 -150.55442 36997 ft 460 kts 44°
2026-04-30 08:46 28.90258 -150.50148 36997 ft 460 kts 44°
2026-04-30 08:47 28.94652 -150.44844 36997 ft 460 kts 44°
2026-04-30 08:47 28.99005 -150.39582 36997 ft 460 kts 44°
2026-04-30 08:48 29.03402 -150.34260 36997 ft 460 kts 44°
2026-04-30 08:48 29.07815 -150.28911 36997 ft 460 kts 44°
2026-04-30 08:49 29.12164 -150.23633 36997 ft 460 kts 44°
2026-04-30 08:49 29.16551 -150.18302 36996 ft 460 kts 44°
2026-04-30 08:50 29.20935 -150.12967 36997 ft 460 kts 44°
2026-04-30 08:50 29.25309 -150.07638 36997 ft 460 kts 44°
2026-04-30 08:51 29.29683 -150.02301 36996 ft 460 kts 44°
2026-04-30 08:51 29.34059 -149.96954 36997 ft 460 kts 45°
2026-04-30 08:52 29.38435 -149.91601 36997 ft 460 kts 45°
2026-04-30 08:52 29.42803 -149.86249 36997 ft 460 kts 45°
2026-04-30 08:53 29.47171 -149.80891 36997 ft 460 kts 45°
2026-04-30 08:53 29.51536 -149.75529 36997 ft 460 kts 45°
2026-04-30 08:54 29.55900 -149.70161 36997 ft 460 kts 45°
2026-04-30 08:54 29.60261 -149.64790 36997 ft 460 kts 45°
2026-04-30 08:55 29.64617 -149.59418 36997 ft 460 kts 45°
2026-04-30 08:55 29.68942 -149.54075 36996 ft 460 kts 45°
2026-04-30 08:56 29.73304 -149.48680 36997 ft 460 kts 45°
2026-04-30 08:56 29.77655 -149.43292 36997 ft 460 kts 45°
2026-04-30 08:57 29.82009 -149.37891 36997 ft 460 kts 45°
2026-04-30 08:57 29.86360 -149.32507 36997 ft 460 kts 45°
2026-04-30 08:58 29.90715 -149.27096 36997 ft 460 kts 45°
2026-04-30 08:58 29.95055 -149.21685 36997 ft 460 kts 45°
2026-04-30 08:59 29.99395 -149.16263 36997 ft 460 kts 45°
2026-04-30 08:59 30.03704 -149.10876 36997 ft 460 kts 45°
2026-04-30 09:00 30.08041 -149.05455 36997 ft 460 kts 45°
2026-04-30 09:00 30.12382 -149.00024 36996 ft 460 kts 45°
2026-04-30 09:01 30.16711 -148.94594 36997 ft 460 kts 45°
2026-04-30 09:01 30.21039 -148.89156 36998 ft 460 kts 45°
2026-04-30 09:02 30.27535 -148.80975 36997 ft 460 kts 45°
2026-04-30 09:02 30.31864 -148.75544 36997 ft 460 kts 45°
2026-04-30 09:03 30.36206 -148.70091 36997 ft 460 kts 45°
2026-04-30 09:03 30.40536 -148.64639 36997 ft 460 kts 45°
2026-04-30 09:04 30.44831 -148.59219 36997 ft 460 kts 45°
2026-04-30 09:04 30.49151 -148.53757 36997 ft 460 kts 45°
2026-04-30 09:05 30.53474 -148.48283 36997 ft 460 kts 45°
2026-04-30 09:05 30.57789 -148.42809 36998 ft 460 kts 45°
2026-04-30 09:06 30.62106 -148.37325 36997 ft 460 kts 45°
2026-04-30 09:06 30.66416 -148.31842 36997 ft 460 kts 45°
2026-04-30 09:07 30.70729 -148.26346 36997 ft 460 kts 45°
2026-04-30 09:07 30.75039 -148.20846 36997 ft 460 kts 45°
2026-04-30 09:08 30.79343 -148.15348 36997 ft 460 kts 45°
2026-04-30 09:08 30.83646 -148.09840 36995 ft 460 kts 45°
2026-04-30 09:09 30.87948 -148.04328 36997 ft 460 kts 45°
2026-04-30 09:09 30.92244 -147.98814 36997 ft 460 kts 45°
2026-04-30 09:10 30.96545 -147.93287 36997 ft 460 kts 45°
2026-04-30 09:10 31.00834 -147.87767 36997 ft 460 kts 46°
2026-04-30 09:11 31.05099 -147.82270 36997 ft 460 kts 46°
2026-04-30 09:11 31.09387 -147.76735 36997 ft 460 kts 46°
2026-04-30 09:12 31.13674 -147.71194 36997 ft 460 kts 46°
2026-04-30 09:12 31.17961 -147.65643 36997 ft 460 kts 46°
2026-04-30 09:13 31.22246 -147.60088 36997 ft 460 kts 46°
2026-04-30 09:13 31.26527 -147.54529 36997 ft 460 kts 46°
2026-04-30 09:14 31.30804 -147.48969 36997 ft 460 kts 46°
2026-04-30 09:14 31.35084 -147.43395 36997 ft 460 kts 46°
2026-04-30 09:15 31.39355 -147.37825 36997 ft 460 kts 46°
2026-04-30 09:15 31.43629 -147.32244 36996 ft 460 kts 46°
2026-04-30 09:16 31.47894 -147.26666 36997 ft 460 kts 46°
2026-04-30 09:16 31.52165 -147.21071 36997 ft 460 kts 46°
2026-04-30 09:17 31.56423 -147.15485 36997 ft 460 kts 46°
2026-04-30 09:17 31.60691 -147.09878 36997 ft 460 kts 46°
2026-04-30 09:18 31.64918 -147.04316 36997 ft 460 kts 46°
2026-04-30 09:18 31.69170 -146.98714 36997 ft 460 kts 46°
2026-04-30 09:19 31.72744 -146.93998 36997 ft 460 kts 46°
2026-04-30 09:19 31.76995 -146.88381 36997 ft 460 kts 46°
2026-04-30 09:20 31.81243 -146.82760 36999 ft 460 kts 46°
2026-04-30 09:20 31.85489 -146.77132 36997 ft 460 kts 46°
2026-04-30 09:21 31.89737 -146.71494 36997 ft 460 kts 46°
2026-04-30 09:21 31.93980 -146.65853 36997 ft 460 kts 46°
2026-04-30 09:22 31.98221 -146.60208 36995 ft 460 kts 46°
2026-04-30 09:22 32.02463 -146.54551 36997 ft 460 kts 46°
2026-04-30 09:23 32.06696 -146.48900 36997 ft 460 kts 46°
2026-04-30 09:23 32.10933 -146.43233 36997 ft 460 kts 46°
2026-04-30 09:24 32.15162 -146.37569 36997 ft 460 kts 46°
2026-04-30 09:24 32.19364 -146.31932 36997 ft 460 kts 46°
2026-04-30 09:25 32.23586 -146.26259 36997 ft 460 kts 46°
2026-04-30 09:25 32.27812 -146.20573 36997 ft 460 kts 46°
2026-04-30 09:26 32.32036 -146.14882 36997 ft 460 kts 46°
2026-04-30 09:26 32.36254 -146.09188 36997 ft 460 kts 46°
2026-04-30 09:27 32.40467 -146.03493 36997 ft 460 kts 46°
2026-04-30 09:27 32.44676 -145.97795 36997 ft 460 kts 46°
2026-04-30 09:28 32.48892 -145.92078 36994 ft 460 kts 47°
2026-04-30 09:28 32.53101 -145.86362 36997 ft 460 kts 47°
2026-04-30 09:29 32.57311 -145.80636 36996 ft 460 kts 47°
2026-04-30 09:29 32.61515 -145.74909 36997 ft 460 kts 47°
2026-04-30 09:30 32.65715 -145.69179 36997 ft 460 kts 47°
2026-04-30 09:30 32.69913 -145.63441 36997 ft 460 kts 47°
2026-04-30 09:31 32.74109 -145.57698 36997 ft 460 kts 47°
2026-04-30 09:31 32.78305 -145.51946 36996 ft 460 kts 47°
2026-04-30 09:32 32.82494 -145.46195 36997 ft 460 kts 47°
2026-04-30 09:32 32.86683 -145.40435 36997 ft 460 kts 47°
2026-04-30 09:33 32.90871 -145.34666 36997 ft 460 kts 47°
2026-04-30 09:33 32.95053 -145.28897 36997 ft 460 kts 47°
2026-04-30 09:34 32.99203 -145.23164 36997 ft 460 kts 47°
2026-04-30 09:34 33.03383 -145.17379 36997 ft 460 kts 47°
2026-04-30 09:35 33.07555 -145.11596 36997 ft 460 kts 47°
2026-04-30 09:35 33.11733 -145.05797 36997 ft 460 kts 47°
2026-04-30 09:36 33.15901 -145.00002 36997 ft 460 kts 47°
2026-04-30 09:36 33.20067 -144.94200 36997 ft 460 kts 47°
2026-04-30 09:37 33.24232 -144.88389 36997 ft 460 kts 47°
2026-04-30 09:37 33.28395 -144.82574 36997 ft 460 kts 47°
2026-04-30 09:38 33.32559 -144.76747 36997 ft 460 kts 47°
2026-04-30 09:38 33.36716 -144.70919 36997 ft 460 kts 47°
2026-04-30 09:39 33.40867 -144.65092 36997 ft 460 kts 47°
2026-04-30 09:39 33.45019 -144.59254 36997 ft 460 kts 47°
2026-04-30 09:40 33.49169 -144.53409 36997 ft 460 kts 47°
2026-04-30 09:40 33.53317 -144.47557 36997 ft 460 kts 47°
2026-04-30 09:41 33.57462 -144.41700 36997 ft 460 kts 47°
2026-04-30 09:41 33.61606 -144.35836 36997 ft 461 kts 47°
2026-04-30 09:42 33.65742 -144.29971 36997 ft 461 kts 47°
2026-04-30 09:42 33.69882 -144.24093 36997 ft 461 kts 47°
2026-04-30 09:43 33.73983 -144.18260 36997 ft 461 kts 47°
2026-04-30 09:43 33.78116 -144.12373 36997 ft 461 kts 47°
2026-04-30 09:44 33.82240 -144.06488 36997 ft 461 kts 48°
2026-04-30 09:44 33.86368 -144.00588 36997 ft 461 kts 48°
2026-04-30 09:45 33.90494 -143.94681 36997 ft 461 kts 48°
2026-04-30 09:45 33.94608 -143.88782 36997 ft 461 kts 48°
2026-04-30 09:46 33.98727 -143.82866 36997 ft 461 kts 48°
2026-04-30 09:46 34.02843 -143.76944 36996 ft 461 kts 48°
2026-04-30 09:47 34.06951 -143.71024 36997 ft 461 kts 48°
2026-04-30 09:47 34.11064 -143.65086 36997 ft 461 kts 48°
2026-04-30 09:48 34.15167 -143.59153 36997 ft 461 kts 48°
2026-04-30 09:48 34.19271 -143.53209 36997 ft 461 kts 48°
2026-04-30 09:49 34.23375 -143.47254 36997 ft 461 kts 48°
2026-04-30 09:49 34.27471 -143.41303 36997 ft 461 kts 48°
2026-04-30 09:50 34.31562 -143.35347 36997 ft 461 kts 48°
2026-04-30 09:50 34.35658 -143.29375 36997 ft 461 kts 48°
2026-04-30 09:51 34.39745 -143.23406 36997 ft 461 kts 48°
2026-04-30 09:51 34.43833 -143.17424 36997 ft 461 kts 48°
2026-04-30 09:52 34.47891 -143.11477 36997 ft 461 kts 48°
2026-04-30 09:52 34.51969 -143.05492 36997 ft 461 kts 48°
2026-04-30 09:53 34.56048 -142.99493 36997 ft 461 kts 48°
2026-04-30 09:53 34.60121 -142.93493 36997 ft 461 kts 48°
2026-04-30 09:54 34.64196 -142.87481 36997 ft 461 kts 49°
2026-04-30 09:54 34.68262 -142.81470 36997 ft 461 kts 49°
2026-04-30 09:55 34.72331 -142.75446 36997 ft 461 kts 49°
2026-04-30 09:55 34.76392 -142.69423 36997 ft 461 kts 49°
2026-04-30 09:56 34.80456 -142.63399 36997 ft 461 kts 48°
2026-04-30 09:56 34.84528 -142.57360 36997 ft 461 kts 49°
2026-04-30 09:57 34.88573 -142.51327 36997 ft 461 kts 49°
2026-04-30 09:57 34.92597 -142.45304 36997 ft 461 kts 49°
2026-04-30 09:58 34.96638 -142.39246 36997 ft 461 kts 49°
2026-04-30 09:58 35.00688 -142.33170 36997 ft 461 kts 49°
2026-04-30 09:59 35.08758 -142.21017 36997 ft 461 kts 49°
2026-04-30 10:00 35.14796 -142.11879 36997 ft 461 kts 49°
2026-04-30 10:01 35.20829 -142.02719 36996 ft 461 kts 49°
2026-04-30 10:02 35.26882 -141.93580 36997 ft 461 kts 49°
2026-04-30 10:02 35.30907 -141.87482 36997 ft 461 kts 49°
2026-04-30 10:03 35.34932 -141.81365 36997 ft 461 kts 49°
2026-04-30 10:03 35.38949 -141.75244 36997 ft 461 kts 49°
2026-04-30 10:04 35.42961 -141.69118 36997 ft 461 kts 49°
2026-04-30 10:04 35.46977 -141.62975 36997 ft 461 kts 49°
2026-04-30 10:05 35.50983 -141.56833 36997 ft 461 kts 49°
2026-04-30 10:05 35.54983 -141.50689 36997 ft 461 kts 49°
2026-04-30 10:06 35.58960 -141.44571 36997 ft 461 kts 49°
2026-04-30 10:06 35.62958 -141.38408 36997 ft 461 kts 49°
2026-04-30 10:07 35.66950 -141.32244 36997 ft 461 kts 49°
2026-04-30 10:07 35.70941 -141.26069 36997 ft 461 kts 49°
2026-04-30 10:08 35.74929 -141.19888 36997 ft 461 kts 50°
2026-04-30 10:08 35.78918 -141.13695 36997 ft 461 kts 50°
2026-04-30 10:09 35.82227 -141.08549 36997 ft 461 kts 50°
2026-04-30 10:09 35.86205 -141.02353 36997 ft 461 kts 50°
2026-04-30 10:10 35.90177 -140.96155 36997 ft 461 kts 50°
2026-04-30 10:10 35.94154 -140.89936 36997 ft 461 kts 50°
2026-04-30 10:11 35.98123 -140.83720 36997 ft 461 kts 50°
2026-04-30 10:11 36.02093 -140.77492 36996 ft 461 kts 50°
2026-04-30 10:12 36.06055 -140.71264 36997 ft 461 kts 50°
2026-04-30 10:12 36.10017 -140.65024 36997 ft 461 kts 50°
2026-04-30 10:13 36.13975 -140.58781 36997 ft 461 kts 50°
2026-04-30 10:13 36.17925 -140.52537 36997 ft 461 kts 50°
2026-04-30 10:14 36.21878 -140.46278 36997 ft 461 kts 50°
2026-04-30 10:14 36.27797 -140.36885 36997 ft 461 kts 50°
2026-04-30 10:15 36.31742 -140.30609 36997 ft 461 kts 50°
2026-04-30 10:15 36.35684 -140.24327 36997 ft 461 kts 50°
2026-04-30 10:16 36.39618 -140.18045 36997 ft 461 kts 50°
2026-04-30 10:17 36.45493 -140.08643 36997 ft 461 kts 50°
2026-04-30 10:17 36.51381 -139.99195 36997 ft 461 kts 50°
2026-04-30 10:18 36.55309 -139.92878 36997 ft 461 kts 50°
2026-04-30 10:19 36.61183 -139.83407 36997 ft 461 kts 50°
2026-04-30 10:19 36.65098 -139.77080 36997 ft 461 kts 50°
2026-04-30 10:20 36.69011 -139.70746 36997 ft 461 kts 50°
2026-04-30 10:20 36.74877 -139.61225 36997 ft 461 kts 50°
2026-04-30 10:21 36.78780 -139.54877 36997 ft 461 kts 50°
2026-04-30 10:21 36.82683 -139.48516 36996 ft 461 kts 51°
2026-04-30 10:22 36.86581 -139.42152 36997 ft 461 kts 51°
2026-04-30 10:22 36.90475 -139.35782 36997 ft 461 kts 51°
2026-04-30 10:23 36.94339 -139.29448 36997 ft 461 kts 51°
2026-04-30 10:23 36.98227 -139.23063 36997 ft 461 kts 51°
2026-04-30 10:24 37.02109 -139.16677 36997 ft 461 kts 51°
2026-04-30 10:24 37.05994 -139.10273 36997 ft 461 kts 51°
2026-04-30 10:25 37.09868 -139.03875 36997 ft 461 kts 51°
2026-04-30 10:25 37.13741 -138.97468 36997 ft 461 kts 51°
2026-04-30 10:26 37.17610 -138.91054 36997 ft 461 kts 51°
2026-04-30 10:26 37.21485 -138.84617 36997 ft 461 kts 51°
2026-04-30 10:27 37.25346 -138.78192 36997 ft 461 kts 51°
2026-04-30 10:27 37.29209 -138.71751 36997 ft 461 kts 51°
2026-04-30 10:28 37.33066 -138.65306 36997 ft 461 kts 51°
2026-04-30 10:28 37.36918 -138.58859 36997 ft 461 kts 51°
2026-04-30 10:29 37.40768 -138.52401 36997 ft 461 kts 51°
2026-04-30 10:29 37.44619 -138.45931 36997 ft 461 kts 51°
2026-04-30 10:30 37.48459 -138.39465 36997 ft 462 kts 51°
2026-04-30 10:30 37.52303 -138.32980 36997 ft 462 kts 51°
2026-04-30 10:31 37.56136 -138.26502 36997 ft 462 kts 51°
2026-04-30 10:31 37.59947 -138.20049 36997 ft 462 kts 51°
2026-04-30 10:32 37.63777 -138.13548 36997 ft 462 kts 51°
2026-04-30 10:32 37.67603 -138.07044 36997 ft 462 kts 51°
2026-04-30 10:33 37.71422 -138.00538 36997 ft 462 kts 51°
2026-04-30 10:33 37.75240 -137.94022 36997 ft 462 kts 51°
2026-04-30 10:34 37.79060 -137.87488 36996 ft 462 kts 51°
2026-04-30 10:34 37.82874 -137.80952 36997 ft 462 kts 52°
2026-04-30 10:35 37.86678 -137.74421 36997 ft 462 kts 52°
2026-04-30 10:35 37.90487 -137.67869 36997 ft 462 kts 52°
2026-04-30 10:36 37.94290 -137.61311 36997 ft 462 kts 52°
2026-04-30 10:36 37.98083 -137.54761 36997 ft 462 kts 52°
2026-04-30 10:37 38.01878 -137.48193 36997 ft 462 kts 52°
2026-04-30 10:37 38.05674 -137.41609 36997 ft 462 kts 52°
2026-04-30 10:38 38.09456 -137.35038 36996 ft 462 kts 52°
2026-04-30 10:38 38.13245 -137.28439 36997 ft 462 kts 52°
2026-04-30 10:39 38.17020 -137.21853 36997 ft 462 kts 52°
2026-04-30 10:39 38.20800 -137.15245 36997 ft 462 kts 52°
2026-04-30 10:40 38.24573 -137.08635 36997 ft 462 kts 52°
2026-04-30 10:40 38.28318 -137.02063 36997 ft 462 kts 52°
2026-04-30 10:41 38.32083 -136.95440 36997 ft 462 kts 52°
2026-04-30 10:41 38.35848 -136.88806 36997 ft 462 kts 52°
2026-04-30 10:42 38.39602 -136.82175 36997 ft 462 kts 52°
2026-04-30 10:42 38.43358 -136.75530 36997 ft 462 kts 52°
2026-04-30 10:43 38.47107 -136.68882 36997 ft 462 kts 52°
2026-04-30 10:43 38.50856 -136.62220 36997 ft 462 kts 52°
2026-04-30 10:44 38.54602 -136.55551 36997 ft 462 kts 52°
2026-04-30 10:44 38.58342 -136.48879 36997 ft 462 kts 52°
2026-04-30 10:45 38.62076 -136.42202 36997 ft 462 kts 52°
2026-04-30 10:45 38.65784 -136.35560 36998 ft 462 kts 52°
2026-04-30 10:46 38.69542 -136.28813 36997 ft 462 kts 52°
2026-04-30 10:46 38.73240 -136.22162 36997 ft 462 kts 52°
2026-04-30 10:47 38.76962 -136.15452 36997 ft 462 kts 53°
2026-04-30 10:47 38.80681 -136.08734 36997 ft 462 kts 53°
2026-04-30 10:48 38.84394 -136.02014 36997 ft 462 kts 53°
2026-04-30 10:48 38.88103 -135.95285 36997 ft 462 kts 53°
2026-04-30 10:49 38.91810 -135.88547 36997 ft 462 kts 53°
2026-04-30 10:49 38.95511 -135.81806 36997 ft 462 kts 53°
2026-04-30 10:50 38.99212 -135.75051 36997 ft 462 kts 53°
2026-04-30 10:50 39.02905 -135.68296 36996 ft 462 kts 53°
2026-04-30 10:51 39.06598 -135.61526 36997 ft 462 kts 53°
2026-04-30 10:51 39.10285 -135.54754 36997 ft 462 kts 53°
2026-04-30 10:52 39.13969 -135.47973 36997 ft 462 kts 53°
2026-04-30 10:52 39.17648 -135.41186 36997 ft 462 kts 53°
2026-04-30 10:53 39.21324 -135.34391 36997 ft 462 kts 53°
2026-04-30 10:53 39.25009 -135.27601 36997 ft 462 kts 53°
2026-04-30 10:54 39.28659 -135.20841 36997 ft 462 kts 53°
2026-04-30 10:54 39.32317 -135.14024 36997 ft 462 kts 53°
2026-04-30 10:55 39.35969 -135.07193 36997 ft 462 kts 53°
2026-04-30 10:55 39.39621 -135.00358 36997 ft 462 kts 53°
2026-04-30 10:56 39.43272 -134.93520 36997 ft 462 kts 53°
2026-04-30 10:56 39.46920 -134.86673 36997 ft 462 kts 53°
2026-04-30 10:57 39.50562 -134.79811 36997 ft 462 kts 53°
2026-04-30 10:57 39.54195 -134.72944 36997 ft 462 kts 54°
2026-04-30 10:58 39.57826 -134.66065 36997 ft 462 kts 54°
2026-04-30 10:58 39.61448 -134.59201 36997 ft 462 kts 53°
2026-04-30 10:59 39.65100 -134.52335 36997 ft 462 kts 53°
2026-04-30 10:59 39.68127 -134.46617 36997 ft 462 kts 53°
2026-04-30 11:00 39.71761 -134.39726 36997 ft 462 kts 54°
2026-04-30 11:00 39.75384 -134.32833 36997 ft 462 kts 54°
2026-04-30 11:01 39.79006 -134.25922 36997 ft 462 kts 54°
2026-04-30 11:01 39.82618 -134.19014 36997 ft 462 kts 54°
2026-04-30 11:02 39.86224 -134.12099 36997 ft 462 kts 54°
2026-04-30 11:02 39.89833 -134.05163 36996 ft 462 kts 54°
2026-04-30 11:03 39.93436 -133.98222 36997 ft 462 kts 54°
2026-04-30 11:04 39.98830 -133.87803 36997 ft 462 kts 54°
2026-04-30 11:04 40.02421 -133.80845 36997 ft 462 kts 54°
2026-04-30 11:05 40.06006 -133.73885 36997 ft 462 kts 54°
2026-04-30 11:05 40.09592 -133.66907 36997 ft 462 kts 54°
2026-04-30 11:06 40.13169 -133.59933 36997 ft 462 kts 54°
2026-04-30 11:06 40.16744 -133.52945 36997 ft 462 kts 54°
2026-04-30 11:07 40.20291 -133.45996 36997 ft 462 kts 54°
2026-04-30 11:07 40.23857 -133.38995 36997 ft 462 kts 54°
2026-04-30 11:08 40.27416 -133.31993 36997 ft 462 kts 54°
2026-04-30 11:08 40.30977 -133.24970 36997 ft 462 kts 54°
2026-04-30 11:09 40.34530 -133.17949 36997 ft 462 kts 54°
2026-04-30 11:09 40.38081 -133.10915 36997 ft 462 kts 54°
2026-04-30 11:10 40.41625 -133.03879 36997 ft 462 kts 54°
2026-04-30 11:10 40.45167 -132.96829 36997 ft 462 kts 55°
2026-04-30 11:11 40.48703 -132.89778 36997 ft 462 kts 55°
2026-04-30 11:11 40.52237 -132.82713 36997 ft 462 kts 55°
2026-04-30 11:12 40.55762 -132.75651 36997 ft 462 kts 55°
2026-04-30 11:12 40.59265 -132.68618 36997 ft 462 kts 55°
2026-04-30 11:13 40.62783 -132.61538 36997 ft 462 kts 55°
2026-04-30 11:13 40.66301 -132.54441 36997 ft 462 kts 55°
2026-04-30 11:14 40.69810 -132.47345 36997 ft 462 kts 55°
2026-04-30 11:14 40.73318 -132.40238 36997 ft 462 kts 55°
2026-04-30 11:15 40.76821 -132.33122 36997 ft 462 kts 55°
2026-04-30 11:15 40.80323 -132.25993 36997 ft 463 kts 55°
2026-04-30 11:16 40.83816 -132.18865 36996 ft 463 kts 55°
2026-04-30 11:16 40.87308 -132.11724 36997 ft 463 kts 55°
2026-04-30 11:17 40.90790 -132.04585 36997 ft 463 kts 55°
2026-04-30 11:17 40.94275 -131.97424 36997 ft 463 kts 55°
2026-04-30 11:18 40.97748 -131.90273 36997 ft 463 kts 56°
2026-04-30 11:18 41.02956 -131.79514 36997 ft 463 kts 56°
2026-04-30 11:19 41.06403 -131.72374 36996 ft 463 kts 56°
2026-04-30 11:19 41.09859 -131.65197 36997 ft 463 kts 56°
2026-04-30 11:20 41.13319 -131.57997 36997 ft 463 kts 56°
2026-04-30 11:20 41.16774 -131.50790 36997 ft 463 kts 56°
2026-04-30 11:21 41.20221 -131.43582 36997 ft 463 kts 56°
2026-04-30 11:21 41.23667 -131.36358 36997 ft 463 kts 56°
2026-04-30 11:22 41.27103 -131.29140 36997 ft 463 kts 56°
2026-04-30 11:22 41.30542 -131.21896 36997 ft 463 kts 56°
2026-04-30 11:23 41.33972 -131.14655 36997 ft 463 kts 56°
2026-04-30 11:24 41.39109 -131.03780 36997 ft 463 kts 56°
2026-04-30 11:24 41.42529 -130.96517 36997 ft 463 kts 56°
2026-04-30 11:25 41.47629 -130.85655 36997 ft 463 kts 56°
2026-04-30 11:26 41.54440 -130.71087 36997 ft 463 kts 56°
2026-04-30 11:26 41.57839 -130.63790 36997 ft 463 kts 56°
2026-04-30 11:27 41.61231 -130.56492 36997 ft 463 kts 56°
2026-04-30 11:27 41.64626 -130.49168 36997 ft 463 kts 56°
2026-04-30 11:28 41.69702 -130.38186 36998 ft 463 kts 57°
2026-04-30 11:29 41.73083 -130.30849 36997 ft 463 kts 57°
2026-04-30 11:29 41.78137 -130.19847 36997 ft 463 kts 57°
2026-04-30 11:30 41.83191 -130.08807 36997 ft 463 kts 57°
2026-04-30 11:31 41.86551 -130.01444 36997 ft 463 kts 57°
2026-04-30 11:31 41.89907 -129.94071 36997 ft 463 kts 57°
2026-04-30 11:32 41.93260 -129.86686 36997 ft 463 kts 57°
2026-04-30 11:32 41.96608 -129.79295 36996 ft 463 kts 57°
2026-04-30 11:33 42.01620 -129.68198 36997 ft 463 kts 57°
2026-04-30 11:33 42.04927 -129.60851 36997 ft 463 kts 57°
2026-04-30 11:34 42.08257 -129.53435 36997 ft 463 kts 57°
2026-04-30 11:34 42.11587 -129.46003 36997 ft 463 kts 57°
2026-04-30 11:35 42.14906 -129.38576 36997 ft 463 kts 57°
2026-04-30 11:35 42.18224 -129.31132 36997 ft 463 kts 57°
2026-04-30 11:36 42.21535 -129.23684 36997 ft 463 kts 57°
2026-04-30 11:36 42.24842 -129.16229 36997 ft 463 kts 57°
2026-04-30 11:37 42.28140 -129.08772 36997 ft 463 kts 57°
2026-04-30 11:37 42.31440 -129.01296 36997 ft 463 kts 57°
2026-04-30 11:38 42.34732 -128.93818 36997 ft 463 kts 57°
2026-04-30 11:38 42.38021 -128.86325 36997 ft 463 kts 58°
2026-04-30 11:39 42.41302 -128.78834 36997 ft 463 kts 58°
2026-04-30 11:39 42.44582 -128.71326 36997 ft 463 kts 58°
2026-04-30 11:40 42.47832 -128.63867 36997 ft 463 kts 58°
2026-04-30 11:40 42.51100 -128.56347 36997 ft 463 kts 58°
2026-04-30 11:41 42.54362 -128.48823 36996 ft 463 kts 58°
2026-04-30 11:41 42.57622 -128.41284 36997 ft 463 kts 58°
2026-04-30 11:42 42.60878 -128.33736 36997 ft 463 kts 58°
2026-04-30 11:42 42.64126 -128.26185 36997 ft 463 kts 58°
2026-04-30 11:43 42.67372 -128.18621 36997 ft 463 kts 58°
2026-04-30 11:43 42.70610 -128.11056 36997 ft 463 kts 58°
2026-04-30 11:44 42.73845 -128.03478 36997 ft 463 kts 58°